CUBESAT XI-V

Last updated on Fri Dec 19 2025 00:03:11 GMT+0000 (Coordinated Universal Time)

1 28895U 05043F 25352.35586525 .00001431 00000+0 23645-3 0 9991 2 28895 98.2728 139.5287 0015229 61.5464 298.7275 14.71920624 75143
UTC large
Height (km)
Speed (km/s)
/
Latitude / Longitude
Inclination (degrees)
Orbital Period (minutes)
Azimuth
Elevation
Range (km)
Doppler Factor

Next 0 passes for location: London (51.5072 / 0.1276)

Sorry there are no passes over London.